TimeMST,TemperatureF,Dew PointF,Humidity,Sea Level PressureIn,VisibilityMPH,Wind Direction,Wind SpeedMPH,Gust SpeedMPH,PrecipitationIn,Events,Conditions,WindDirDegrees,DateUTC
12:53 AM,27.0,21.9,81,30.00,10.0,WSW,8.1,-,N/A,,Clear,250,2012-11-19 07:53:00
1:53 AM,26.1,21.0,81,30.00,10.0,SW,8.1,-,N/A,,Clear,230,2012-11-19 08:53:00
2:53 AM,27.0,21.0,78,29.99,10.0,West,4.6,-,N/A,,Clear,280,2012-11-19 09:53:00
3:53 AM,25.0,19.0,78,29.98,10.0,NE,3.5,-,N/A,,Clear,40,2012-11-19 10:53:00
4:53 AM,25.0,19.0,78,29.97,10.0,East,5.8,-,N/A,,Clear,100,2012-11-19 11:53:00
5:53 AM,24.1,18.0,77,29.97,10.0,East,4.6,-,N/A,,Clear,90,2012-11-19 12:53:00
6:53 AM,21.9,17.1,82,29.96,10.0,East,5.8,-,N/A,,Clear,90,2012-11-19 13:53:00
7:53 AM,23.0,18.0,81,29.95,10.0,ENE,4.6,-,N/A,,Clear,70,2012-11-19 14:53:00
8:53 AM,28.0,21.0,75,29.96,10.0,ENE,5.8,-,N/A,,Clear,70,2012-11-19 15:53:00
9:53 AM,30.0,23.0,75,29.94,10.0,NE,6.9,-,N/A,,Clear,50,2012-11-19 16:53:00
10:53 AM,33.1,25.0,72,29.94,10.0,NE,6.9,-,N/A,,Clear,50,2012-11-19 17:53:00
11:53 AM,39.9,28.9,65,29.89,10.0,East,4.6,-,N/A,,Clear,80,2012-11-19 18:53:00
12:53 PM,46.9,28.0,48,29.89,10.0,NNW,6.9,-,N/A,,Clear,330,2012-11-19 19:53:00
1:53 PM,48.0,30.0,50,29.87,10.0,Variable,3.5,-,N/A,,Clear,0,2012-11-19 20:53:00
2:53 PM,52.0,32.0,47,29.85,10.0,SW,9.2,-,N/A,,Clear,230,2012-11-19 21:53:00
3:53 PM,46.0,32.0,58,29.86,10.0,Calm,Calm,-,N/A,,Clear,0,2012-11-19 22:53:00
4:53 PM,43.0,30.0,60,29.84,10.0,Calm,Calm,-,N/A,,Clear,0,2012-11-19 23:53:00
5:53 PM,46.0,30.0,54,29.82,10.0,SSW,12.7,-,N/A,,Clear,200,2012-11-20 00:53:00
6:53 PM,48.0,30.0,50,29.79,10.0,SW,19.6,-,N/A,,Clear,220,2012-11-20 01:53:00
7:53 PM,52.0,30.0,43,29.75,10.0,SSW,23.0,33.4,N/A,,Clear,210,2012-11-20 02:53:00
8:53 PM,53.1,28.9,40,29.73,10.0,SSW,27.6,35.7,N/A,,Clear,210,2012-11-20 03:53:00
9:53 PM,53.1,30.0,41,29.71,10.0,SSW,29.9,38.0,N/A,,Clear,210,2012-11-20 04:53:00
10:53 PM,53.1,30.9,43,29.70,10.0,SSW,32.2,39.1,N/A,,Clear,210,2012-11-20 05:53:00
11:53 PM,53.1,30.9,43,29.73,10.0,SSW,20.7,29.9,N/A,,Clear,210,2012-11-20 06:53:00